Wind_Speed
17 13 16 12 13 13 14 13 14 15 18 19 19 20 18 18 20 18 19 19 19 19 15 15 15 14 16 18 21 19 20 21 21 19 18 17 16 14 13 12 18 14 15
18 15 16 11 12 12 14 13 14 14 17 18 18 19 19 17 18 19 18 20 19 17 14 15 18 13 18 20 21 21 20 21 19 20 19 17 14 12 14 16 17 15 16
20 16 14 12 11 12 12 11 13 14 15 16 17 18 17 18 19 20 22 21 19 19 16 17 19 19 20 21 20 19 18 18 17 17 18 15 13 13 14 15 16 14 15
18 17 14 11 10 11 9 10 12 13 14 15 15 16 17 19 20 21 23 21 20 20 20 19 19 19 17 19 18 17 16 17 14 15 14 17 14 14 13 14 13 13 14
17 20 14 12 11 9 9 10 11 12 12 13 13 15 17 18 19 20 20 20 19 19 19 19 19 17 18 17 17 16 18 15 12 15 13 12 13 12 12 12 11 11 13
20 18 14 13 9 9 8 9 11 12 11 13 13 14 15 17 17 19 18 17 17 17 18 18 17 17 17 15 13 13 16 11 6 15 15 11 12 14 12 10 12 12 14
22 15 13 12 10 9 9 9 10 11 11 12 12 13 14 15 16 16 16 16 16 15 17 16 15 13 12 13 13 13 12 13 12 11 15 11 11 13 11 10 10 11 12
18 18 13 11 11 9 9 9 9 10 11 11 12 12 12 14 14 14 14 14 14 13 14 12 13 11 11 11 10 9 9 11 10 8 13 12 11 11 10 9 9 10 11
14 16 11 11 8 10 10 10 8 9 9 9 10 10 11 12 12 11 11 11 11 11 10 10 10 9 7 9 7 7 8 11 8 9 9 10 10 10 10 8 7 8 9
13 11 13 10 10 9 9 9 8 8 8 7 9 8 10 11 11 10 11 10 9 8 8 7 6 6 5 4 5 6 8 10 4 8 8 10 9 10 10 8 7 8 9
11 7 10 11 7 6 8 6 8 6 7 8 6 6 7 9 10 11 10 9 8 8 7 6 6 5 4 3 2 4 6 8 9 8 14 8 8 9 8 7 7 7 7
13 9 6 10 10 9 5 4 3 5 5 5 9 5 2 5 4 9 7 7 7 6 6 5 3 3 5 11 4 2 8 1 3 6 12 7 6 7 8 7 7 7 8
14 11 10 6 4 11 5 5 5 3 3 5 4 5 3 5 5 8 9 8 8 7 8 9 8 8 13 3 4 6 5 4 8 5 9 7 5 6 7 8 8 8 9
13 12 11 9 7 6 6 3 5 3 2 3 6 3 4 6 5 4 3 5 5 10 6 5 8 5 3 5 7 8 9 8 7 7 13 7 7 7 8 8 9 11 11
13 11 11 9 7 5 3 4 5 3 5 5 3 5 3 5 4 4 3 5 5 5 5 6 5 5 7 8 11 12 9 11 10 9 6 9 7 9 12 13 13 14 15
12 11 11 10 8 6 3 1 2 1 4 4 2 3 4 4 6 4 4 7 5 5 7 3 4 7 8 9 8 10 11 11 12 10 12 9 13 13 11 14 16 15 17
11 12 11 9 9 7 5 4 5 10 4 5 7 5 2 4 3 4 5 4 5 4 3 5 5 6 8 9 10 11 12 11 12 12 13 13 12 18 15 14 15 16 16
11 8 9 9 9 8 5 4 4 6 4 4 6 7 4 2 1 1 4 3 2 4 4 4 6 4 7 9 11 9 15 13 15 17 17 19 18 22 22 16 16 17 17
12 12 9 8 6 7 6 4 3 1 1 3 3 8 5 3 3 3 3 3 2 3 4 4 4 5 6 8 12 13 11 11 16 15 18 14 13 11 15 20 16 15 18
14 13 13 11 9 8 6 5 4 5 6 4 7 5 2 3 4 5 4 3 4 5 4 3 4 8 10 8 10 10 12 16 17 18 15 11 12 14 14 11 15 15 18
14 13 13 13 13 10 10 9 7 9 10 4 2 6 6 5 5 6 6 5 5 6 6 5 8 7 10 8 8 16 12 17 14 13 14 17 18 15 16 15 14 13 17
15 14 12 11 14 13 12 8 6 3 6 6 6 5 5 7 7 8 7 7 4 8 3 5 7 8 7 6 4 12 5 10 20 22 4 3 3 9 9 10 9 9 10
15 14 14 10 14 13 12 8 5 5 1 6 7 5 4 4 4 7 6 5 6 9 8 5 5 4 8 6 5 6 4 4 3 14 8 4 1 5 5 8 9 9 11
13 14 13 11 13 14 11 9 9 10 3 3 0 4 1 1 2 2 2 3 4 6 5 3 4 4 3 3 2 1 5 5 1 6 6 10 4 12 14 9 10 10 12
13 14 14 14 15 14 12 8 8 10 2 2 2 2 0 3 0 0 2 3 4 4 4 3 0 1 2 4 5 4 7 4 6 3 7 15 9 13 11 7 10 12 14
14 14 15 16 16 14 12 10 7 3 6 3 3 3 3 3 2 2 2 2 2 2 3 4 3 3 5 6 8 6 5 3 3 3 5 15 15 16 4 5 8 10 8
Wind_Direction
109 115 116 105 90 80 79 79 78 78 78 83 82 81 80 82 91 101 110 115 115 94 96 97 109 106 115 120 112 109 107 105 100 104 106 104 102 103 99 102 102 99 98
117 119 120 106 96 88 85 83 86 86 85 86 84 81 77 79 89 99 107 112 117 105 97 113 108 108 104 105 107 107 106 109 107 103 107 101 101 85 86 94 97 97 94
116 123 124 109 97 90 89 92 93 91 89 87 88 83 79 78 93 100 102 112 109 109 112 112 112 102 103 107 108 110 109 110 109 112 106 101 102 99 89 91 91 94 94
124 125 125 118 105 91 97 96 95 93 93 92 88 86 84 81 90 101 104 104 103 100 101 105 104 105 102 102 101 100 105 110 117 126 113 110 102 98 101 95 99 100 99
127 118 124 117 110 105 109 97 98 99 96 91 93 95 90 89 91 98 102 103 102 101 100 100 101 101 99 97 97 102 108 107 102 114 97 106 105 106 98 97 99 102 102
117 110 125 120 118 115 113 98 94 101 98 94 93 93 98 94 95 99 103 105 103 104 102 102 103 102 97 94 91 105 111 106 121 105 105 99 103 107 101 104 94 103 99
111 118 122 119 122 119 118 105 103 102 103 103 101 96 99 104 101 102 103 106 108 110 107 109 109 107 102 97 97 104 102 89 94 98 120 108 110 109 113 104 107 105 104
117 116 121 125 121 118 116 115 113 109 106 104 104 106 105 102 109 109 108 107 111 114 115 114 109 107 106 106 98 106 122 111 105 113 99 110 123 121 111 111 113 111 110
121 123 127 128 131 124 112 109 109 117 111 108 110 111 118 114 116 115 115 113 113 117 118 118 116 114 112 110 104 102 128 123 134 127 127 129 131 131 124 125 127 122 121
108 124 122 140 127 150 118 119 112 111 119 121 122 122 134 126 127 130 127 125 127 128 131 132 124 127 125 128 117 102 134 154 166 141 132 131 139 142 135 135 141 141 129
134 152 139 120 131 126 116 121 118 124 128 130 124 133 152 157 144 137 140 134 139 152 154 156 173 179 187 178 136 121 220 218 160 186 129 122 164 156 145 167 163 161 148
150 151 134 123 134 135 132 137 125 154 145 169 136 150 224 155 146 108 146 171 167 175 183 192 207 219 232 218 176 195 266 69 207 172 136 127 172 166 165 181 185 187 181
150 151 149 117 139 126 141 146 139 153 149 159 162 197 138 174 165 207 166 184 186 192 206 195 196 209 219 245 228 253 275 235 237 212 159 172 200 183 190 198 204 206 201
144 148 149 151 145 138 139 191 134 117 151 211 187 205 154 219 187 212 216 151 204 205 160 218 219 252 271 253 262 259 249 249 256 254 185 205 216 223 220 219 223 220 218
156 154 148 150 155 156 186 136 172 174 149 189 189 200 196 230 237 222 257 240 258 289 191 227 235 246 235 243 241 230 241 260 262 255 245 199 220 243 245 243 234 234 229
158 158 150 164 165 166 182 217 250 207 147 142 146 159 216 224 252 235 237 225 224 268 252 275 260 264 236 270 293 267 269 262 239 242 248 233 263 248 248 244 236 236 235
170 160 157 175 174 178 191 218 263 121 105 130 140 158 207 233 200 218 219 203 203 242 257 278 270 268 270 271 255 262 264 262 270 256 253 265 251 243 239 231 224 227 236
147 153 178 187 178 178 177 184 284 93 98 67 163 153 157 207 222 197 220 199 198 233 219 260 263 261 253 260 264 264 255 246 255 250 242 242 241 231 228 223 217 223 230
166 180 194 205 196 189 181 213 239 113 131 111 156 162 137 191 215 266 229 186 219 239 220 244 232 243 257 270 268 249 245 234 243 240 237 231 240 247 218 217 212 221 230
190 192 197 196 183 205 187 210 240 183 189 181 225 115 164 235 238 233 243 235 262 230 257 275 276 267 257 262 278 275 233 234 237 234 227 237 237 230 240 224 210 219 231
207 196 202 207 198 205 207 201 207 197 192 191 224 241 238 224 235 236 257 229 240 251 259 259 276 241 293 286 306 310 303 272 240 228 211 216 221 208 218 234 229 235 237
192 194 189 196 182 193 212 200 262 224 199 221 183 223 231 239 242 253 250 274 271 279 267 254 258 292 267 307 318 280 298 327 10 310 238 293 278 179 229 218 235 244 257
184 196 189 201 187 202 231 191 187 233 271 207 225 223 222 279 271 270 274 250 275 274 270 261 265 262 308 319 330 317 316 65 358 290 294 175 313 277 241 220 245 256 258
195 190 188 191 186 188 202 195 165 230 344 49 14 339 272 263 276 306 301 289 288 287 283 271 258 230 279 281 332 313 270 266 355 297 272 8 291 255 268 236 253 234 236
174 184 179 179 186 189 200 237 199 232 26 201 264 276 339 133 163 348 324 303 294 286 264 262 118 322 314 313 307 280 263 291 312 312 320 319 262 251 290 289 308 278 240
167 171 168 175 184 193 199 203 230 224 227 242 239 243 230 199 153 72 32 358 328 325 326 321 340 344 303 299 298 290 263 257 159 205 263 274 307 321 270 338 290 298 318
Height
786 793 794 797 797 797 797 798 798 799 798 798 799 799 800 801 800 800 801 802 804 803 805 807 809 809 811 813 815 817 817 818 817 819 821 823 824 825 825 827 827 829 829
787 794 796 798 799 799 800 801 802 802 801 801 802 801 802 803 804 804 804 806 806 806 807 811 811 814 814 817 818 819 820 821 822 822 825 825 827 829 828 830 830 833 832
788 795 799 800 801 802 803 804 804 804 804 805 805 805 806 806 807 808 808 810 810 810 812 813 815 817 819 820 821 822 823 823 823 826 826 828 832 831 833 833 833 836 835
789 795 800 801 803 805 806 807 807 807 807 808 808 809 810 809 810 811 813 814 815 814 815 817 819 821 823 823 823 824 825 825 825 825 827 829 832 834 836 835 837 838 837
789 794 801 804 806 807 809 809 809 809 810 810 811 812 813 813 813 814 816 817 818 819 819 820 821 824 825 826 826 826 826 826 826 828 830 832 833 835 837 838 839 839 839
789 797 803 806 808 810 811 811 811 812 813 814 814 814 815 816 817 817 819 820 821 823 823 823 826 827 829 829 830 829 828 827 827 829 831 834 836 835 838 841 842 842 841
792 801 806 808 810 812 812 813 814 815 816 816 817 817 818 819 820 821 822 823 825 826 826 828 829 831 830 831 831 830 830 828 829 829 831 835 836 836 840 842 843 843 843
793 801 807 810 812 813 814 814 815 816 818 819 819 820 821 821 822 824 825 826 827 828 829 830 830 831 832 832 832 831 832 829 831 830 831 835 838 838 839 843 845 845 845
795 801 807 811 813 814 815 816 816 818 819 820 821 822 822 823 824 825 826 828 829 829 830 831 832 833 834 832 833 832 831 830 833 833 831 837 838 839 840 843 845 847 847
797 801 804 809 811 813 816 817 818 819 820 821 822 822 823 824 826 827 828 829 830 831 832 833 833 834 834 834 833 832 832 831 833 833 832 836 838 839 839 842 845 847 846
803 803 803 806 812 814 817 818 818 819 819 820 821 822 822 823 825 827 829 830 831 832 833 834 834 834 834 833 833 832 831 831 831 829 831 835 839 839 839 842 844 846 847
801 805 804 805 810 814 816 818 819 819 819 820 821 822 822 823 824 825 828 829 830 831 831 832 832 833 832 832 830 831 830 829 829 830 829 833 839 838 839 841 843 845 847
799 804 807 809 811 812 816 817 817 818 818 820 822 822 823 823 825 825 826 828 829 828 829 830 830 831 829 828 829 830 829 831 828 828 829 832 837 838 839 840 842 844 846
797 803 805 810 812 813 815 815 816 816 818 819 820 822 823 823 823 823 824 824 825 825 826 827 828 828 829 831 831 830 830 829 829 827 827 829 833 836 838 839 840 842 844
797 801 804 809 813 814 815 815 814 813 814 817 819 821 823 824 823 823 824 824 825 823 824 825 826 827 828 828 828 827 828 828 827 827 827 828 831 833 835 837 838 839 840
796 800 804 809 812 814 814 814 811 810 816 814 817 820 822 824 825 824 824 825 826 825 825 825 826 826 826 826 826 825 825 824 824 826 827 827 828 830 831 833 835 837 837
796 799 803 808 811 813 814 813 810 811 808 816 816 820 820 821 823 823 823 824 824 825 826 826 826 826 826 825 824 824 823 822 822 823 824 825 825 826 826 827 831 832 833
795 800 803 805 807 811 811 812 809 812 816 812 815 819 821 822 822 822 822 822 822 824 824 824 824 824 824 823 821 821 820 820 820 820 820 821 820 820 820 822 825 827 829
794 801 804 806 808 808 811 812 811 811 814 816 816 818 820 821 821 821 820 821 822 821 821 822 823 823 822 822 819 817 815 815 814 814 814 815 815 816 816 816 820 822 825
793 798 802 804 807 810 810 813 811 812 815 816 815 817 819 820 821 821 819 821 821 820 820 819 819 820 819 818 815 809 809 808 807 807 808 810 811 812 814 815 817 817 818
792 794 799 803 806 809 810 809 809 810 812 814 815 816 818 819 820 820 819 819 820 818 819 820 819 818 817 814 813 810 805 805 802 804 802 801 803 804 808 812 812 813 813
790 793 797 801 804 808 808 809 811 808 809 811 814 816 817 818 817 817 819 817 818 817 818 818 818 817 816 814 815 811 805 805 805 796 799 796 795 799 804 806 808 810 810
787 792 796 800 803 806 806 809 811 812 812 813 813 815 817 816 817 817 816 816 817 816 814 816 816 816 814 816 815 813 806 813 812 795 791 789 792 796 799 802 805 807 808
784 789 794 799 802 805 807 807 811 812 811 812 813 814 816 816 817 816 816 817 816 816 814 814 814 815 816 816 815 814 811 813 815 807 787 787 791 795 798 794 798 802 803
781 787 792 798 801 803 807 808 810 812 813 812 814 816 817 816 816 816 816 816 815 815 814 814 814 815 816 816 814 814 813 808 810 813 806 794 792 792 781 795 792 797 796
780 785 791 796 800 803 806 809 810 812 812 812 814 815 816 816 816 817 816 816 816 815 815 814 813 814 815 815 814 813 813 813 811 815 814 803 793 789 789 787 793 796 797